Find Kuiper-00066

NORAD ID: 64526 Int'l Des: 2025-134 Owner: KUIP Country: US Constellation: kuiper operational
LEOCIRCULAR

实时位置

正在加载3D地球...

关于 Kuiper-00066

正在加载描述...

即将过境

Passes for default location (London). Set your location on the main map for personalized predictions.

高度历史

Loading altitude history...

两行轨道根数

1 64526U 25134AC 26105.91668981 .00047341 00000-0 63734-2 0 9994
2 64526 51.9028 13.3593 0001017 101.2780 180.4163 14.78736429 5618
Epoch: Apr 15, 2026 • Age: 6 hours

当前状态

高度 638.2 km
速度 7.54 km/s
星下点 -18.05°S, 59.38°W
发射日期 Jun 23, 2025
运行时间 0.8 years
类型 internet

技术详情

分类 Payload
质量 490.00 kg
干质量 490.00 kg
总质量 490.00 kg
长度 1.80 m
直径 0.70 m
跨度 5.00 m
形状 Box + 2 pan
制造商 KUIP
平台类型 Kuiper
阶段状态 In Orbit
所有者/国家 KUIP/US

Most Searched